Time,TemperatureF,DewpointF,PressureIn,WindDirection,WindDirectionDegrees,WindSpeedMPH,WindSpeedGustMPH,Humidity,HourlyPrecipIn,Conditions,Clouds,dailyrainin,SoftwareType,DateUTC
2013-11-24 00:12:00,19.0,14.0,30.57,NW,306,8.0,11.0,82,0.00,,,0.00,,2013-11-24 05:12:00,
2013-11-24 00:22:00,19.0,14.0,30.58,NNW,340,5.0,11.0,82,0.00,,,0.00,,2013-11-24 05:22:00,
2013-11-24 00:43:00,19.0,15.0,30.58,WNW,301,6.0,11.0,83,0.00,,,0.00,,2013-11-24 05:43:00,
2013-11-24 00:53:00,19.0,15.0,30.58,WNW,300,5.0,10.0,83,0.00,,,0.00,,2013-11-24 05:53:00,
2013-11-24 01:12:00,19.0,15.0,30.58,North,5,4.0,11.0,85,0.00,,,0.00,,2013-11-24 06:12:00,
2013-11-24 01:22:00,19.0,15.0,30.56,NW,320,6.0,13.0,85,0.00,,,0.00,,2013-11-24 06:22:00,
2013-11-24 01:42:00,19.0,16.0,30.56,North,360,4.0,11.0,86,0.00,,,0.00,,2013-11-24 06:42:00,
2013-11-24 01:52:00,18.0,15.0,30.55,North,360,6.0,9.0,86,0.00,,,0.00,,2013-11-24 06:52:00,
2013-11-24 02:11:00,18.0,15.0,30.57,West,276,6.0,9.0,86,0.00,,,0.00,,2013-11-24 07:11:00,
2013-11-24 02:22:00,18.0,15.0,30.56,North,355,4.0,8.0,87,0.00,,,0.00,,2013-11-24 07:22:00,
2013-11-24 02:42:00,18.0,15.0,30.57,North,355,5.0,11.0,87,0.00,,,0.00,,2013-11-24 07:42:00,
2013-11-24 02:52:00,18.0,15.0,30.57,North,9,4.0,8.0,88,0.00,,,0.00,,2013-11-24 07:52:00,
2013-11-24 03:22:00,18.0,15.0,30.58,NW,305,3.0,7.0,88,0.00,,,0.00,,2013-11-24 08:22:00,
2013-11-24 03:42:00,18.0,15.0,30.58,WNW,302,4.0,8.0,88,0.00,,,0.00,,2013-11-24 08:42:00,
2013-11-24 03:53:00,18.0,15.0,30.58,NW,321,5.0,8.0,88,0.00,,,0.00,,2013-11-24 08:53:00,
2013-11-24 04:22:00,18.0,15.0,30.58,NW,324,4.0,8.0,87,0.00,,,0.00,,2013-11-24 09:22:00,
2013-11-24 04:43:00,18.0,15.0,30.57,NW,322,2.0,6.0,87,0.00,,,0.00,,2013-11-24 09:43:00,
2013-11-24 04:54:00,18.0,15.0,30.58,NW,306,4.0,9.0,88,0.00,,,0.00,,2013-11-24 09:54:00,
2013-11-24 05:23:00,18.0,15.0,30.58,North,360,2.0,8.0,87,0.00,,,0.00,,2013-11-24 10:23:00,
2013-11-24 05:43:00,18.0,15.0,30.58,North,9,1.0,5.0,86,0.00,,,0.00,,2013-11-24 10:43:00,
2013-11-24 05:53:00,17.0,14.0,30.58,NW,309,1.0,3.0,87,0.00,,,0.00,,2013-11-24 10:53:00,
2013-11-24 06:22:00,17.0,14.0,30.58,SW,236,1.0,2.0,88,0.00,,,0.00,,2013-11-24 11:22:00,
2013-11-24 06:43:00,16.0,13.0,30.58,SW,236,0.0,1.0,88,0.00,,,0.00,,2013-11-24 11:43:00,
2013-11-24 06:53:00,16.0,13.0,30.58,SW,236,1.0,3.0,88,0.00,,,0.00,,2013-11-24 11:53:00,
2013-11-24 07:22:00,16.0,13.0,30.59,SW,236,0.0,0.0,89,0.00,,,0.00,,2013-11-24 12:22:00,
2013-11-24 07:42:00,16.0,14.0,30.59,SW,236,0.0,0.0,90,0.00,,,0.00,,2013-11-24 12:42:00,
2013-11-24 07:53:00,16.0,13.0,30.60,SW,236,0.0,2.0,89,0.00,,,0.00,,2013-11-24 12:53:00,
2013-11-24 08:22:00,17.0,15.0,30.61,SW,236,1.0,3.0,91,0.00,,,0.00,,2013-11-24 13:22:00,
2013-11-24 08:42:00,18.0,16.0,30.61,SW,235,2.0,4.0,91,0.00,,,0.00,,2013-11-24 13:42:00,
2013-11-24 08:52:00,18.0,16.0,30.60,SW,225,2.0,6.0,91,0.00,,,0.00,,2013-11-24 13:52:00,
2013-11-24 09:11:00,19.0,17.0,30.61,SW,232,6.0,9.0,90,0.00,,,0.00,,2013-11-24 14:11:00,
2013-11-24 09:22:00,19.0,17.0,30.62,SW,235,5.0,10.0,90,0.00,,,0.00,,2013-11-24 14:22:00,
2013-11-24 09:42:00,19.0,17.0,30.62,SW,214,4.0,9.0,90,0.00,,,0.00,,2013-11-24 14:42:00,
2013-11-24 09:53:00,19.0,16.0,30.63,West,269,5.0,10.0,89,0.00,,,0.00,,2013-11-24 14:53:00,
2013-11-24 10:22:00,20.0,17.0,30.63,West,264,5.0,8.0,87,0.00,,,0.00,,2013-11-24 15:22:00,
2013-11-24 10:44:00,21.0,17.0,30.64,WSW,249,7.0,10.0,86,0.00,,,0.00,,2013-11-24 15:44:00,
2013-11-24 10:53:00,21.0,17.0,30.64,West,265,8.0,15.0,83,0.00,,,0.00,,2013-11-24 15:53:00,
2013-11-24 11:23:00,22.0,17.0,30.63,West,276,8.0,12.0,82,0.00,,,0.00,,2013-11-24 16:23:00,
2013-11-24 11:42:00,22.0,17.0,30.63,WSW,238,9.0,14.0,81,0.00,,,0.00,,2013-11-24 16:42:00,
2013-11-24 11:53:00,22.0,17.0,30.62,WSW,242,7.0,12.0,80,0.00,,,0.00,,2013-11-24 16:53:00,
2013-11-24 12:12:00,23.0,18.0,30.62,WSW,241,8.0,15.0,80,0.00,,,0.00,,2013-11-24 17:12:00,
2013-11-24 12:23:00,23.0,18.0,30.61,WSW,253,10.0,17.0,80,0.00,,,0.00,,2013-11-24 17:23:00,
2013-11-24 12:43:00,24.0,18.0,30.61,WNW,294,9.0,12.0,79,0.00,,,0.00,,2013-11-24 17:43:00,
2013-11-24 12:52:00,23.0,18.0,30.60,WSW,247,11.0,16.0,80,0.00,,,0.00,,2013-11-24 17:52:00,
2013-11-24 13:22:00,23.0,17.0,30.59,West,264,8.0,16.0,78,0.00,,,0.00,,2013-11-24 18:22:00,
2013-11-24 13:42:00,23.0,17.0,30.59,West,269,8.0,13.0,77,0.00,,,0.00,,2013-11-24 18:42:00,
2013-11-24 13:53:00,24.0,17.0,30.58,West,262,7.0,12.0,75,0.00,,,0.00,,2013-11-24 18:53:00,
2013-11-24 14:12:00,24.0,17.0,30.57,West,259,10.0,16.0,73,0.00,,,0.00,,2013-11-24 19:12:00,
2013-11-24 14:22:00,24.0,16.0,30.57,WNW,292,7.0,13.0,72,0.00,,,0.00,,2013-11-24 19:22:00,
2013-11-24 14:42:00,24.0,16.0,30.56,West,267,8.0,15.0,72,0.00,,,0.00,,2013-11-24 19:42:00,
2013-11-24 14:52:00,24.0,17.0,30.55,West,263,9.0,14.0,74,0.00,,,0.00,,2013-11-24 19:52:00,
2013-11-24 15:22:00,23.0,15.0,30.54,West,261,6.0,11.0,71,0.00,,,0.00,,2013-11-24 20:22:00,
2013-11-24 15:42:00,24.0,16.0,30.54,West,281,9.0,13.0,71,0.00,,,0.00,,2013-11-24 20:42:00,
2013-11-24 15:52:00,24.0,16.0,30.55,West,270,7.0,12.0,71,0.00,,,0.00,,2013-11-24 20:52:00,
2013-11-24 16:11:00,24.0,16.0,30.55,WNW,298,7.0,11.0,71,0.00,,,0.00,,2013-11-24 21:11:00,
2013-11-24 16:22:00,24.0,16.0,30.55,West,280,6.0,9.0,71,0.00,,,0.00,,2013-11-24 21:22:00,
2013-11-24 16:43:00,25.0,17.0,30.54,West,277,5.0,9.0,70,0.00,,,0.00,,2013-11-24 21:43:00,
2013-11-24 16:54:00,25.0,16.0,30.54,West,265,7.0,10.0,67,0.00,,,0.00,,2013-11-24 21:54:00,
2013-11-24 17:23:00,24.0,14.0,30.52,West,259,2.0,7.0,66,0.00,,,0.00,,2013-11-24 22:23:00,
2013-11-24 17:43:00,23.0,14.0,30.52,West,271,3.0,5.0,68,0.00,,,0.00,,2013-11-24 22:43:00,
2013-11-24 17:53:00,23.0,14.0,30.52,West,272,2.0,4.0,69,0.00,,,0.00,,2013-11-24 22:53:00,
2013-11-24 18:12:00,23.0,15.0,30.52,West,273,1.0,2.0,71,0.00,,,0.00,,2013-11-24 23:12:00,
2013-11-24 18:22:00,23.0,15.0,30.52,West,273,0.0,1.0,71,0.00,,,0.00,,2013-11-24 23:22:00,
2013-11-24 18:42:00,22.0,14.0,30.52,West,273,1.0,2.0,71,0.00,,,0.00,,2013-11-24 23:42:00,
2013-11-24 18:52:00,22.0,14.0,30.51,West,273,0.0,2.0,72,0.00,,,0.00,,2013-11-24 23:52:00,
2013-11-24 19:12:00,22.0,15.0,30.51,SSW,194,3.0,4.0,73,0.00,,,0.00,,2013-11-25 00:12:00,
2013-11-24 19:22:00,22.0,15.0,30.50,South,183,3.0,5.0,73,0.00,,,0.00,,2013-11-25 00:22:00,
2013-11-24 19:42:00,22.0,15.0,30.50,South,188,5.0,7.0,73,0.00,,,0.00,,2013-11-25 00:42:00,
2013-11-24 19:52:00,22.0,14.0,30.49,SSW,205,4.0,7.0,72,0.00,,,0.00,,2013-11-25 00:52:00,
2013-11-24 20:11:00,21.0,13.0,30.49,South,190,3.0,7.0,72,0.00,,,0.00,,2013-11-25 01:11:00,
2013-11-24 20:22:00,21.0,13.0,30.48,SSW,213,4.0,7.0,70,0.00,,,0.00,,2013-11-25 01:22:00,
2013-11-24 20:42:00,21.0,12.0,30.48,SW,223,3.0,7.0,67,0.00,,,0.00,,2013-11-25 01:42:00,
2013-11-24 20:53:00,21.0,11.0,30.47,SSW,205,3.0,8.0,65,0.00,,,0.00,,2013-11-25 01:53:00,
2013-11-24 21:22:00,21.0,10.0,30.48,SW,217,4.0,6.0,63,0.00,,,0.00,,2013-11-25 02:22:00,
2013-11-24 21:42:00,21.0,10.0,30.47,SSW,209,5.0,8.0,63,0.00,,,0.00,,2013-11-25 02:42:00,
2013-11-24 21:52:00,21.0,10.0,30.47,SW,215,2.0,5.0,63,0.00,,,0.00,,2013-11-25 02:52:00,
2013-11-24 22:11:00,20.0,9.0,30.46,SW,229,4.0,7.0,63,0.00,,,0.00,,2013-11-25 03:11:00,
2013-11-24 22:22:00,20.0,9.0,30.46,SSW,204,2.0,5.0,63,0.00,,,0.00,,2013-11-25 03:22:00,
2013-11-24 22:43:00,20.0,9.0,30.46,SW,217,3.0,5.0,62,0.00,,,0.00,,2013-11-25 03:43:00,
2013-11-24 22:53:00,20.0,9.0,30.46,SW,223,3.0,5.0,62,0.00,,,0.00,,2013-11-25 03:53:00,
2013-11-24 23:13:00,20.0,9.0,30.45,SSW,192,4.0,6.0,62,0.00,,,0.00,,2013-11-25 04:13:00,
2013-11-24 23:23:00,20.0,9.0,30.45,SSW,192,4.0,6.0,62,0.00,,,0.00,,2013-11-25 04:23:00,
2013-11-24 23:53:00,20.0,9.0,30.44,South,191,4.0,11.0,63,0.00,,,0.00,,2013-11-25 04:53:00,